Regional Weather Roundup
Issued by NWS

Home | Current Version | Previous Version | Text Only | Print | Product List | Glossary On
Versions: 1 2 3 4 5 6 7 8 9 10 11 12 13 14 15 16 17 18 19 20 21 22 23 24 25 26 27 28 29 30 31 32 33 34 35 36 37 38 39 40 41 42 43 44 45 46 47 48 49 50
222
ASUS43 KBIS 310802
RWRND

NORTH DAKOTA REGIONAL WEATHER ROUNDUP
NATIONAL WEATHER SERVICE BISMARCK ND
300 AM CDT SUN JUL 31 2016

NOTE: "FAIR" INDICATES FEW OR NO CLOUDS BELOW 12,000 FEET WITH NO
SIGNIFICANT WEATHER AND/OR OBSTRUCTIONS TO VISIBILITY.


NDZ001>003-009>011-017-310900-
NORTHWEST NORTH DAKOTA

CITY           SKY/WX    TMP DP  RH WIND       PRES   REMARKS
WILLISTON      CLOUDY    75  61  61 S10       29.71F
MINOT          CLEAR     67  62  84 SE6       29.75F
MINOT AFB      CLEAR     62  61  95 SE8       29.74F
$$

NDZ018>021-031>035-040>046-310900-
SOUTHWEST NORTH DAKOTA

CITY           SKY/WX    TMP DP  RH WIND       PRES   REMARKS
BISMARCK       PTCLDY    69  64  84 SE9       29.77F
DICKINSON      CLEAR     65  60  84 S9        29.75F
GARRISON         N/A     66  64  93 SE6       29.76F
HETTINGER ARPT CLEAR     67  60  78 S7        29.79F
$$

NDZ004>008-012>016-024-026-027-054-310900-
NORTHEAST NORTH DAKOTA

CITY           SKY/WX    TMP DP  RH WIND       PRES   REMARKS
GRAND FORKS    CLEAR     63  58  83 SE7       29.87F
GRND FRKS AFB  CLEAR     64  57  77 S8        29.87F
DEVILS LAKE    MOCLDY    68  61  78 SE13      29.84F
$$

NDZ022-023-025-028>030-036>039-047>053-310900-
SOUTHEAST NORTH DAKOTA

CITY           SKY/WX    TMP DP  RH WIND       PRES   REMARKS
FARGO          PTCLDY    68  57  68 SE12      29.89F
JAMESTOWN      CLEAR     64  60  87 SE9       29.84F
$$





USA.gov is the U.S. government's official web portal to all federal, state and local government web resources and services.